{"data":{"norad_id":46130,"epoch":"2026-05-25T04:06:51.121728Z","epoch_age_seconds":63350,"freshness":"FRESH","line1":"1 46130U 20057P   26145.17142502  .02906259  11896-4  12481-2 0  9998","line2":"2 46130  53.0203 205.9195 0011449 338.2007  21.8543 16.21833242320620","mean_motion":16.21833242,"eccentricity":0.0011449,"inclination_deg":53.0203,"raan_deg":205.9195,"arg_perigee_deg":338.2007,"mean_anomaly_deg":21.8543,"bstar":0.0012481,"rev_number":32062,"period_min":88.788413180151,"perigee_km":207.03112837987,"apogee_km":222.12712977223,"semimajor_km":6592.7161290761,"source":"CELESTRAK","updated_at":"2026-05-25T13:38:16.466508Z"}}